Total_Precipitation_Accumulation
1.81 1.84 1.81 1.88 1.80 1.64 1.57 1.58 1.61 1.39 1.23 1.02 0.79 0.61 0.60 0.57 0.61 0.51 0.44 0.40 0.33 0.27 0.24 0.19 0.15 0.14 0.14 0.18 0.21 0.23 0.27 0.37 0.68 0.98 0.85 0.71 0.65 0.71
1.56 1.60 1.65 1.71 1.79 1.78 1.73 1.63 1.56 1.44 1.32 1.14 0.87 0.63 0.65 0.69 0.70 0.56 0.54 0.56 0.43 0.33 0.28 0.23 0.19 0.14 0.13 0.13 0.12 0.10 0.11 0.15 0.35 0.82 0.93 0.80 0.79 0.89
1.37 1.38 1.50 1.55 1.73 1.79 1.76 1.68 1.62 1.53 1.35 1.22 0.97 0.70 0.64 0.68 0.71 0.64 0.59 0.57 0.49 0.39 0.32 0.29 0.25 0.22 0.19 0.16 0.14 0.11 0.09 0.09 0.11 0.24 0.42 0.51 0.68 0.89
1.17 1.18 1.28 1.37 1.51 1.65 1.73 1.63 1.60 1.54 1.50 1.42 1.17 0.90 0.78 0.74 0.70 0.66 0.58 0.57 0.57 0.53 0.43 0.37 0.35 0.33 0.30 0.25 0.20 0.16 0.13 0.10 0.09 0.10 0.19 0.30 0.39 0.53
1.00 1.00 1.06 1.13 1.23 1.36 1.49 1.58 1.56 1.50 1.57 1.55 1.31 1.04 0.85 0.76 0.74 0.68 0.61 0.65 0.62 0.59 0.55 0.47 0.41 0.38 0.37 0.36 0.35 0.31 0.25 0.21 0.19 0.18 0.18 0.21 0.27 0.31
0.79 0.79 0.85 0.87 0.93 1.06 1.20 1.36 1.49 1.57 1.63 1.64 1.48 1.19 0.95 0.82 0.78 0.80 0.81 0.73 0.71 0.63 0.62 0.61 0.59 0.55 0.49 0.45 0.40 0.37 0.34 0.33 0.31 0.29 0.27 0.25 0.23 0.22
0.81 0.72 0.68 0.68 0.74 0.83 0.94 1.16 1.34 1.48 1.59 1.61 1.53 1.36 1.14 0.99 0.86 0.81 0.85 0.91 0.93 0.83 0.78 0.72 0.68 0.59 0.52 0.44 0.38 0.33 0.29 0.27 0.26 0.24 0.21 0.18 0.16 0.16
0.78 0.79 0.78 0.74 0.62 0.57 0.61 0.75 0.98 1.18 1.34 1.43 1.44 1.33 1.16 1.06 1.02 0.96 0.86 0.86 0.96 0.92 0.89 0.95 0.84 0.74 0.67 0.56 0.50 0.42 0.33 0.29 0.27 0.26 0.24 0.24 0.24 0.22
0.73 0.74 0.80 0.79 0.82 0.70 0.61 0.60 0.65 0.81 1.01 1.18 1.22 1.18 1.22 1.14 1.02 0.92 0.84 0.79 0.78 0.79 0.80 0.90 0.88 0.79 0.70 0.66 0.66 0.57 0.49 0.41 0.37 0.34 0.30 0.26 0.24 0.23
0.81 0.80 0.84 0.86 0.84 0.94 0.90 0.83 0.78 0.79 0.88 0.80 0.87 1.10 1.17 1.15 1.09 1.05 1.01 0.90 0.79 0.72 0.68 0.76 0.78 0.75 0.66 0.59 0.59 0.53 0.46 0.40 0.35 0.33 0.33 0.32 0.30 0.29
0.80 0.79 0.83 0.81 0.99 1.05 0.96 0.95 0.90 0.86 1.02 1.02 0.99 1.01 1.03 1.02 1.00 1.03 1.04 0.97 0.92 0.80 0.65 0.59 0.62 0.67 0.68 0.62 0.58 0.55 0.46 0.41 0.37 0.35 0.35 0.35 0.33 0.28
0.85 0.80 0.95 0.89 0.90 0.84 0.77 0.95 0.95 0.87 0.81 0.79 0.79 0.81 0.80 0.83 0.87 0.87 0.93 0.91 0.84 0.83 0.71 0.60 0.58 0.59 0.61 0.58 0.52 0.49 0.46 0.45 0.42 0.38 0.37 0.35 0.32 0.27
0.88 0.88 0.84 0.89 0.71 0.67 0.69 0.79 0.94 0.91 0.87 0.89 0.84 0.77 0.72 0.71 0.68 0.71 0.78 0.79 0.77 0.76 0.63 0.54 0.54 0.52 0.46 0.43 0.43 0.40 0.36 0.35 0.33 0.30 0.29 0.29 0.28 0.24
0.79 0.70 0.66 0.70 0.53 0.49 0.50 0.61 0.75 0.77 0.75 0.83 0.82 0.76 0.69 0.65 0.60 0.57 0.59 0.61 0.61 0.59 0.56 0.49 0.48 0.46 0.41 0.32 0.32 0.32 0.29 0.27 0.26 0.25 0.22 0.24 0.24 0.23
0.59 0.59 0.50 0.45 0.41 0.37 0.41 0.50 0.55 0.65 0.74 0.78 0.70 0.64 0.63 0.63 0.58 0.55 0.49 0.47 0.46 0.44 0.41 0.40 0.44 0.48 0.45 0.36 0.29 0.27 0.26 0.25 0.22 0.21 0.21 0.19 0.18 0.18
0.38 0.32 0.30 0.32 0.35 0.37 0.38 0.39 0.44 0.60 0.74 0.74 0.67 0.60 0.60 0.60 0.61 0.59 0.56 0.51 0.48 0.48 0.43 0.40 0.43 0.46 0.46 0.41 0.36 0.31 0.29 0.28 0.25 0.24 0.24 0.22 0.20 0.17
0.50 0.41 0.33 0.31 0.33 0.37 0.38 0.43 0.54 0.63 0.69 0.62 0.60 0.55 0.54 0.58 0.60 0.60 0.60 0.57 0.52 0.48 0.50 0.52 0.51 0.50 0.48 0.47 0.47 0.44 0.43 0.40 0.37 0.34 0.29 0.24 0.22 0.21
0.49 0.49 0.48 0.48 0.48 0.47 0.45 0.41 0.42 0.49 0.54 0.58 0.57 0.53 0.49 0.50 0.51 0.51 0.53 0.52 0.50 0.48 0.45 0.46 0.51 0.56 0.54 0.50 0.44 0.42 0.47 0.49 0.47 0.44 0.37 0.28 0.24 0.26
0.41 0.43 0.44 0.44 0.44 0.41 0.39 0.36 0.32 0.32 0.38 0.46 0.54 0.57 0.55 0.52 0.50 0.47 0.43 0.42 0.39 0.37 0.37 0.35 0.37 0.41 0.45 0.46 0.45 0.37 0.36 0.41 0.42 0.38 0.35 0.31 0.27 0.28
0.27 0.30 0.30 0.29 0.28 0.29 0.26 0.24 0.23 0.24 0.26 0.28 0.35 0.44 0.54 0.62 0.62 0.55 0.50 0.47 0.43 0.38 0.36 0.32 0.29 0.27 0.29 0.31 0.31 0.30 0.30 0.33 0.33 0.31 0.28 0.26 0.23 0.24
0.10 0.13 0.13 0.13 0.15 0.15 0.15 0.14 0.15 0.18 0.20 0.21 0.22 0.25 0.32 0.42 0.52 0.56 0.57 0.60 0.59 0.54 0.50 0.45 0.39 0.38 0.31 0.29 0.27 0.23 0.22 0.23 0.23 0.20 0.18 0.18 0.18 0.18
0.05 0.06 0.06 0.06 0.08 0.08 0.08 0.07 0.07 0.10 0.13 0.14 0.14 0.16 0.19 0.22 0.30 0.38 0.42 0.44 0.46 0.50 0.53 0.54 0.52 0.50 0.43 0.38 0.32 0.26 0.23 0.23 0.25 0.27 0.22 0.18 0.16 0.15
0.03 0.04 0.04 0.05 0.05 0.07 0.11 0.13 0.10 0.08 0.09 0.11 0.12 0.13 0.13 0.15 0.17 0.22 0.27 0.30 0.34 0.37 0.40 0.42 0.41 0.39 0.38 0.37 0.37 0.36 0.31 0.27 0.25 0.26 0.25 0.30 0.28 0.20